This is the latest recevied weather packets stored in our database for station/object CE1RLP-34. If no packets are shown the sender has not sent any weather packets the latest 10 day(s).
| Time | Temp. | Humidity | Pressure | Rain* | Wind** | Luminosity | Snow |
|---|---|---|---|---|---|---|---|
| 1777688400 | 12.22° C | 4% | 1083.7 hPa | - | - | - | - |
| 1777687500 | 12.22° C | 3% | 1083.7 hPa | - | - | - | - |
| 1777686597 | 12.22° C | 4% | 1083.7 hPa | - | - | - | - |
| 1777685697 | 12.22° C | 4% | 1083.7 hPa | - | - | - | - |
| 1777684795 | 12.22° C | 4% | 1083.6 hPa | - | - | - | - |
| 1777683895 | 12.78° C | 4% | 1083.5 hPa | - | - | - | - |
| 1777682991 | 12.78° C | 4% | 1083.4 hPa | - | - | - | - |
| 1777682091 | 12.78° C | 4% | 1083.4 hPa | - | - | - | - |
| 1777681189 | 13.33° C | 3% | 1083.3 hPa | - | - | - | - |
| 1777679417 | 13.89° C | 4% | 1083.2 hPa | - | - | - | - |
| 1777677614 | 15° C | 4% | 1083.1 hPa | - | - | - | - |
| 1777676714 | 16.11° C | 3% | 1083 hPa | - | - | - | - |
| 1777675812 | 16.67° C | 3% | 1083 hPa | - | - | - | - |
| 1777674912 | 17.78° C | 3% | 1082.5 hPa | - | - | - | - |
| 1777674010 | 20.56° C | 2% | 1082.9 hPa | - | - | - | - |
| 1777673109 | 22.78° C | 3% | 1082.8 hPa | - | - | - | - |
| 1777672207 | 24.44° C | 4% | 1082.8 hPa | - | - | - | - |
| 1777671307 | 25.56° C | 4% | 1082.7 hPa | - | - | - | - |
| 1777670404 | 26.11° C | 4% | 1082.7 hPa | - | - | - | - |
| 1777669505 | 26.67° C | 3% | 1082.6 hPa | - | - | - | - |
| 1777668602 | 27.22° C | 4% | 1082.6 hPa | - | - | - | - |
| 1777667702 | 27.22° C | 3% | 1082.6 hPa | - | - | - | - |
| 1777666799 | 27.22° C | 3% | 1082.6 hPa | - | - | - | - |
| 1777665900 | 27.22° C | 3% | 1082.7 hPa | - | - | - | - |
| 1777664997 | 26.67° C | 3% | 1082.7 hPa | - | - | - | - |
* Rain since midnight (hover to see other rain measurements)
** Current wind speed in m/s (hover to see current wind gust speed)